Flag for U.S.A. Weather past 2 weeks in Cleveland, Tennessee, U.S.A.

Now
77 °F

Broken clouds.


Feels Like: 79 °F
Forecast: 68 / 78 °F
Wind: 9 mph from Southwest

Location: Lovell Field

Current Time: Jul 4, 2015 at 3:05:29 PM

Latest Report: Jul 4, 2015 at 1:53 PM


Visibility: 7 mi

Pressure: 30.02 "Hg

Humidity: 71%

Dew point: 67 °F

Location of ClevelandLocation

Historic Weather in Cleveland — Graph

°F

Cleveland temperature yesterday

Maximum temperature yesterday: 80 °F (at 3:53 PM)
Minimum temperature yesterday: 71 °F (at 11:53 PM)
Average temperature yesterday: 75 °F

Past Weeks' High & Low Weather Summary

 TemperatureHumidityPressure
High96 °F (Jun 24, 3:53 PM)97% (Jun 27, 2:53 AM)30.15 "Hg (Jun 27, 2:53 AM)
Low61 °F (Jun 29, 6:53 AM)30% (Jun 28, 5:53 PM)29.82 "Hg (Jun 27, 4:53 PM)
Average79 °F72%29.99 "Hg
* Reported Jun 19 1:53 PM — Jul 4 1:53 PM, Cleveland, Weather by CustomWeather, © 2015

Note: Actual official high and low records may vary slightly from our data, if they occured in-between our weather recording intervals... More about our weather records

Advertising

Cleveland weather history for previous 24 hours

 ConditionsComfort  
Time TempWeatherWind HumidityBarometerVisibility
1:53 PM
Sat, Jul 4
77 °FBroken clouds.9 mph71%30.02 "Hg7 mi
12:53 PM76 °FBroken clouds.8 mph77%30.04 "Hg7 mi
11:53 AM75 °FFog.7 mph85%30.04 "Hg6 mi
10:53 AM73 °FFog.5 mph88%30.04 "Hg4 mi
9:53 AM71 °FFog.3 mph93%30.03 "Hg4 mi
8:53 AM71 °FFog.6 mph90%30.01 "Hg4 mi
7:53 AM69 °FFog.3 mph96%29.99 "Hg2 mi
6:53 AM69 °FDrizzle. Fog.3 mph93%29.98 "Hg1 mi
5:53 AM69 °FFog.3 mph93%29.96 "Hg4 mi
4:53 AM71 °FLight rain. Mostly cloudy.3 mph87%29.96 "Hg10 mi
3:53 AM70 °FOvercast.3 mph93%29.96 "Hg10 mi
2:53 AM70 °FPassing clouds.No wind93%29.95 "Hg10 mi
2:00 AM70 °FHeavy rain. Fog.5 mph93%29.98 "Hg1 mi
12:53 AM70 °FPassing clouds.3 mph93%29.97 "Hg10 mi
11:53 PM
Fri, Jul 3
71 °FRain. Mostly cloudy.7 mph87%29.98 "Hg10 mi
10:53 PM73 °FLight rain. Partly cloudy.3 mph79%29.97 "Hg9 mi
9:53 PM74 °FBroken clouds.8 mph76%29.95 "Hg10 mi
8:53 PM75 °FPartly sunny.6 mph71%29.93 "Hg10 mi
7:53 PM77 °FPartly sunny.8 mph66%29.93 "Hg10 mi
6:53 PM78 °FPartly sunny.9 mph64%29.91 "Hg10 mi
5:53 PM80 °FPartly sunny.12 mph60%29.92 "Hg10 mi
4:53 PM80 °FPartly sunny.12 mph62%29.93 "Hg10 mi
3:53 PM80 °FPartly sunny.15 mph64%29.94 "Hg10 mi
Weather by CustomWeather, © 2015

See weather overviewHow to use our weather pages